Plymouth Peak Pro Challenge - Loft Flying

Station: INVENTORY - T Race

Distance: 10 Miles    

Release: 04-Jun-2018 10:00

Weather Release:    Arrival:

Wind at Release:     Wind at Arrival:

Temp at Release: °    Temp at Arrival: °

Lofts: 122

Birds: 661

Clocked: 649

Good Luck to Everyone!
Drops Pos Breeder Pigeon Name Color Sex Ent Arrival Speed To Win Eligible AOC
301 Highland Loft - NY 18057-AU18-DZ BB C 4 10:36:28.10 482.610 00:03:27 Yes
302 Heritage Loft - UT 17501-AU18-ARPU BC H 4 10:36:28.40 482.544 00:03:27 Yes
303 Spring Break Race - UT 22409-AU18-AA BB H 4 10:36:28.80 482.456 00:03:27 Yes
304 Shi Loft - PA 7720-IF18-ERIE BB H 4 10:36:29.40 482.324 00:03:28 Yes
304 ! ! ! S P E E D S - R A C E R S ! ! ! - FL 2034-AU18-SCHE BBTC C 2 10:36:29.40 482.324 00:03:28 Yes
306 G & L Loft - OR 0703-AU18-FHI RC H 2 10:36:29.80 482.236 00:03:28 Yes
307 Damon Raze + Greg Lund - MN 0052-AU18-MYST BB H 1 10:36:29.90 482.214 00:03:28 Yes
308 Csa - MS 6521-AU18-FOYS BBWF H 2 10:36:30.20 482.148 00:03:29 Yes
309 Shi Loft - PA 7706-IF18-ERIE BC H 5 10:36:30.50 482.082 00:03:29 Yes
310 Leonard Lee - CA 1020-AU18-LLL BB H 2 10:36:31.00 481.972 00:03:30 Yes
311 J & M Partridge Loft - CA 1107-AU18-PASO LTBB C 4 10:36:31.20 481.928 00:03:30 Yes
311 Thunder Birds/Rodriguez Breeding Loft - TX 18471-AU18-WIN 779-790 BBSM H 3 10:36:31.20 481.928 00:03:30 Yes
313 Ken Christopher - UT 8428-AU18-GS GRIZ H 7 10:36:31.80 481.796 00:03:30 Yes
313 Pairan Racing Loft - OH 0034-AU18-LFO BB H 6 10:36:31.80 481.796 00:03:30 Yes
315 Smith R.P.L. - UT 3546-AU18-SRPL BBTC H 8 10:36:31.90 481.774 00:03:30 Yes
316 Nemelka Racing Pigeon Loft - UT 8042-AU18-NRPL Poitiers X Kleine Aarden BB C 4 10:36:32.40 481.664 00:03:31 Yes
317 Redrock Kennel - OK 17205-AU18-ADA MLY H 3 10:36:32.70 481.598 00:03:31 Yes
318 Fassio Loft - UT 0909-AU18-SLI BBTC H 5 10:36:32.80 481.576 00:03:31 Yes
319 Smith R.P.L. - UT 3570-AU18-SRPL BCSM H 9 10:36:33.10 481.510 00:03:32 Yes
319 J & M Partridge Loft - CA 1221-AU18-PASO BB H 5 10:36:33.10 481.510 00:03:32 Yes
321 Emerson & Donnelly - SC 0348-AU18-VITA WGRZ H 4 10:36:34.10 481.291 00:03:33 Yes
322 Csa - MS 6531-AU18-FOYS BC C 3 10:36:35.00 481.093 00:03:34 Yes
323 Pyrate/Dracula - MA 0162-AU18-FR Rogue BCSM H 1 10:36:35.20 481.050 00:03:34 Yes
324 Richard & Carmen Gale - UT 7284-AU18-FOYS BB H 1 10:36:35.50 480.984 00:03:34 Yes
325 Nanez Family Lofts - WI 8115-AU18-NFL BBWF H 9 10:36:35.90 480.896 00:03:34 Yes
325 Fassio Loft - UT 0946-AU18-SLI BLK C 6 10:36:35.90 480.896 00:03:34 Yes
325 Da-Dong - WI 6086-AU18-RRP BB H 5 10:36:35.90 480.896 00:03:34 Yes
328 Baldwin & Tilson - NC 8093-AU18-TENT BBSM H 5 10:36:36.30 480.809 00:03:35 Yes
329 Genesis Syndicate Loft - AZ 0257-AU18-GENE BB C 8 10:36:36.90 480.677 00:03:35 Yes
329 Bryan Maier - PA 0326-IF18-MAIE BBPD H 4 10:36:36.90 480.677 00:03:35 Yes
331 B & B Loft 4 - TX 0231-AU18-NSL Iron Stormy BB H 2 10:36:37.30 480.590 00:03:36 Yes
332 Prout Loft - CA 0457-AU18-PROU BB H 2 10:36:37.90 480.459 00:03:36 Yes
333 Slick Hills Loft - UT 38638-AU18-ARPU BB H 7 10:36:38.40 480.349 00:03:37 Yes
334 Mile High - CO 0041-AU18-FRAN BB C 4 10:36:39.30 480.153 00:03:38 Yes
335 Kosmos Loft - UT 1484-AU18-WFA BC H 1 10:36:40.10 479.978 00:03:39 Yes
336 Bryan Maier - PA 0318-IF18-MAIE BBWF C 5 10:36:40.90 479.804 00:03:39 Yes
337 S & M Loft - Eden Loft - ID 7069-AU18-AA MLY C 8 10:36:41.00 479.782 00:03:40 Yes
338 G & L Loft - OR 3122-AU18-WPC BCWF H 3 10:36:41.50 479.673 00:03:40 Yes
339 Liu Loft - NC 0865-AU18-KVLI BBTC C 3 10:36:41.70 479.629 00:03:40 Yes
340 Eastern Pearl Loft - VA 0356-AU18-EPL 🈚️量 356 BB C 4 10:36:42.30 479.499 00:03:41 Yes
340 Brook Loft - NC 8667-IF18-CCF BBTC C 7 10:36:42.30 479.499 00:03:41 Yes
342 Liu Loft - NC 0814-AU18-KVLI BB H 4 10:36:42.70 479.412 00:03:41 Yes
343 Royers Loft - UT 0128-AU18-SLI LTBC H 2 10:36:43.00 479.346 00:03:42 Yes
343 Merrill Brother\'s - ID 0557-AU18-FHI MLY H 2 10:36:43.00 479.346 00:03:42 Yes
345 Mountain View 2 - UT 0354-AU18-SLI DCWF H 2 10:36:43.10 479.325 00:03:42 Yes
346 Genesis Syndicate Loft - AZ 0262-AU18-GENE BB H 9 10:36:43.40 479.259 00:03:42 Yes
346 Evolution Racing - UT 5602-AU18-OGN BBPN H 2 10:36:43.40 479.259 00:03:42 Yes
348 Fassio Loft - UT 0945-AU18-SLI BLK H 7 10:36:43.50 479.238 00:03:42 Yes
349 B & B Loft 4 - TX 0215-AU18-NSL Foolish Stormy BB H 3 10:36:44.40 479.042 00:03:43 Yes
349 Da-Dong - WI 6088-AU18-RRP BB H 6 10:36:44.40 479.042 00:03:43 Yes
351 Slick Hills Loft - UT 38623-AU18-ARPU BC H 8 10:36:45.00 478.912 00:03:43 Yes
352 Da-Dong - WI 0833-AU18-RAC BB H 7 10:36:45.40 478.825 00:03:44 Yes
352 Eduardo Torres - TX 49900-AU18-ARPU BB C 2 10:36:45.40 478.825 00:03:44 Yes
354 Gold Star Loft - CA 1403-AU18-STON BBSM H 2 10:36:45.70 478.760 00:03:44 Yes
355 Smith R.P.L. - UT 3596-AU18-SRPL BB C 10 10:36:46.10 478.673 00:03:45 Yes
356 Skylinerpl.Com - UT 1049-AU18-UVI "Guided Missle" BB C 4 10:36:46.20 478.651 00:03:45 Yes
356 Van Wingerden/Book - CA 4437-AU18-SANT BB H 7 10:36:46.20 478.651 00:03:45 Yes
358 Aimhigh Loft - CA 0118-AU18-FMT Aim-764/868 BC C 1 10:36:47.20 478.434 00:03:46 Yes
359 Duvall/Whiteley - UT 0929-AU18-UVI BBWF H 5 10:36:48.00 478.261 00:03:47 Yes
360 Racing Pigeon Mall - WA 0814-AU18-RPM BB C 3 10:36:48.60 478.131 00:03:47 Yes
361 Smith R.P.L. - UT 3586-AU18-SRPL BB H 11 10:36:49.80 477.871 00:03:48 Yes
362 Red Ass Ranch - TX 0279-AU18-RAR BBSM C 4 10:36:50.30 477.763 00:03:49 Yes
363 Genesis Syndicate Loft - AZ 0259-AU18-GENE LTBC H 10 10:36:50.70 477.677 00:03:49 Yes
364 Fleet Washington - DC 1820-AU18-FLEE BB H 5 10:36:51.20 477.569 00:03:50 Yes
365 Mc Cormick Loft - CA 0211-AU18-HANG BB H 1 10:36:52.30 477.331 00:03:51 Yes
366 Marengo Creek Farms - AL 2929-AU18-MCF BB H 5 10:36:53.00 477.180 00:03:52 Yes
367 M2 Loft - UT 0042-AU18-UVI BB H 4 10:36:53.70 477.029 00:03:52 Yes
368 Eastern Pearl Loft - VA 0362-AU18-EPL 🈚️量 362 BCSM C 5 10:36:54.80 476.792 00:03:53 Yes
369 Horse Heaven Hills - OR 0800-AU18-HHH BB H 2 10:36:55.40 476.663 00:03:54 Yes
370 Yendez Loft - TX 0117-AU18-YEND BBSM H 2 10:36:55.80 476.577 00:03:54 Yes
371 Triangle F Loft - UT 0235-AU18-UVI DNTC H 6 10:36:56.10 476.513 00:03:55 Yes
372 Da-Dong - WI 6064-AU18-RRP BC H 8 10:36:56.50 476.427 00:03:55 Yes
373 Baldwin & Tilson - NC 8074-AU18-TENT BSLT H 6 10:36:57.00 476.319 00:03:56 Yes
374 Horse Heaven Hills - OR 0809-AU18-HHH BCWF C 3 10:36:57.20 476.276 00:03:56 Yes
375 B & M - CA 5354-AU18-COM BB H 5 10:36:57.80 476.148 00:03:56 Yes
376 Broster Family Loft - CA 2514-AU18-ARC Hees46 BB H 2 10:36:58.80 475.933 00:03:57 Yes
377 Highland Loft - NY 18110-AU18-DZ BC H 5 10:36:59.60 475.761 00:03:58 Yes
378 3 Stars & A Sun Loft - TX 0003-AU18-STAR BC H 1 10:37:00.30 475.611 00:03:59 Yes
379 Marengo Creek Farms - AL 2919-AU18-MCF BB H 6 10:37:00.60 475.547 00:03:59 Yes
379 Ed Kehl - UT 1508-AU18-WFA BBSP H 6 10:37:00.60 475.547 00:03:59 Yes
381 Brown & Boyle - UT 0827-AU18-WF BB H 1 10:37:00.90 475.483 00:03:59 Yes
382 Mile High - CO 2316-AU18-AA DUBR H 5 10:37:01.40 475.376 00:04:00 Yes
383 Gold Country Challenge - CA 0006-AU18-HANG BCTC C 3 10:37:02.00 475.248 00:04:00 Yes
384 Ken Christopher - UT 8409-AU18-GS RC H 8 10:37:02.30 475.183 00:04:01 Yes
385 A P C Loft - TX 18191-AU18-APC BB H 8 10:37:04.90 474.628 00:04:03 Yes
386 M & Y Connection - MI 0029-AU18-MSYP 84 X 91736 BCSP H 3 10:37:05.00 474.607 00:04:04 Yes
386 Drama Queen Loft - TX 1089-AU18-GCI BBWF H 3 10:37:05.00 474.607 00:04:04 Yes
388 Kolvenbag & Son - PA 1206-IF18-KOLV BB H 6 10:37:05.50 474.500 00:04:04 Yes
389 J & M Partridge Loft - CA 1078-AU18-PASO DC C 6 10:37:05.60 474.479 00:04:04 Yes
390 Baldwin & Tilson - NC 8095-AU18-TENT BB H 7 10:37:07.90 473.989 00:04:06 Yes
391 Vincent Rooney - VA 8029-IF18-SEA BC C 2 10:37:08.30 473.904 00:04:07 Yes
392 Bryan Maier - PA 0332-IF18-MAIE BB H 6 10:37:09.20 473.713 00:04:08 Yes
393 Liu Loft - NC 0801-AU18-KVLI BC H 5 10:37:10.20 473.500 00:04:09 Yes
394 Red Ass Ranch - TX 0333-AU18-RAR BB H 5 10:37:10.60 473.415 00:04:09 Yes
395 Catherine And Geoff Cooper - BA 0591-AU18-RIXE BC C 2 10:37:11.00 473.330 00:04:10 Yes
396 Kastle Loft - KY 1815-AU18-KAST Little Bittabothe BCSM H 2 10:37:11.60 473.203 00:04:10 Yes
397 Rocky Mountain Racing - UT 18435-AU18-RMR BC H 7 10:37:12.00 473.118 00:04:11 Yes
398 Nanez Family Lofts - WI 8135-AU18-NFL BB H 10 10:37:12.40 473.034 00:04:11 Yes
399 Marengo Creek Farms - AL 2905-AU18-MCF BC C 7 10:37:12.80 472.949 00:04:11 Yes
400 Fassio Loft - UT 0903-AU18-SLI BBSP H 8 10:37:13.20 472.864 00:04:12 Yes

There are 661 bird records

Note: These Race Results are unofficial and subject to change until verified by the Race Committee and declared final.